Grant Township, Minnesota
Current Conditions -  °F | °C
As of 11:11 AM on Thursday 30 Oct 2014 (Local Time) from K21D Reporting Station
Overcast Overcast  
Wind Chill: 43°   Ceiling: 5500
Heat Index: 43°   Visibility: 10mi
Dew Point: 36°   Wind: 0mph
Humidity: 76%   Direction: NA
Pressure: 30.09"   Gusts: NA
Location:  45.051°N, 92.9612°W
Report Text: K21D 301611Z AUTO 00000KT 10SM OVC055 06/02 A3009 RMK AO2
Loading
Personal Weather Stations






























Interactive Weather Map
Tropical Storm Tracking
New forecast layout! Learn more

10-Day Weather Forecast

Advertisements
Track Severe Weather on mobile